Погода в Джорджтауне

Каймановы острова     19°17′39″N   81°22′43″W
темп.,
°C
ветер,
м/с
пор.,
м/с
влажн.,
%
обл.,
%
осадки,
мм/ч
давл.,
гПа
погр.,
м
10 апреля, сб
сб1001:00+26вюв778319 0.1 1013644
04:00+26вюв66832 0.8 1012587
07:00+26вюв677799 2.9 1013741
10:00+27юв897788 0.0 1013784
13:00+27вюв8980100 0.1 1012856
16:00+27юв897916 0.1 1010870
19:00+27юв898284 0.3 1011750
22:00+27юв7982100 0.3 1012722
11 апреля, вс
вс1101:00+27юв7883100 0.3 1011681
04:00+27юв898363 0.1 1010778
07:00+27юв7983100 0.2 1011774
10:00+27юв81085100 0.3 1012793
13:00+27юв81084100 0.4 1010880
16:00+27ююв788280 0.0 1009839
19:00+27ююв798510 0.0 1010807
22:00+27ююв78841 0.0 1011681
12 апреля, пн
пн1201:00+27юв788097 0.0 1011637
04:00+27ююв78805 0.0 1010767
07:00+27юв77800 0.0 1012749
10:00+27юв79830 0.0 1013760
13:00+27юв79830 0.0 1011801
16:00+27юв788062 0.1 1010702
19:00+27юв67830 0.1 1011706
22:00+27вюв66816 0.0 1013666
13 апреля, вт
вт1301:00+26вюв44823 0.0 1012522
04:00+26в558382 0.0 1012571
07:00+26в56835 0.1 1014658
10:00+26в56815 0.0 1015626
13:00+27в56780 0.0 1014606
16:00+27в55750 0.0 1012592
19:00+27в45790 0.0 1013571
22:00+27в34780 0.0 1014377
14 апреля, ср
ср1401:00+27св45780 0.0 1013365
04:00+27всв567771 0.0 1013652
07:00+27всв5680100 0.0 1014637
10:00+27в678198 0.0 1015708
13:00+26в667972 0.0 1013640
16:00+26в448011 0.0 1011578
19:00+26в33720 0.0 1012551
22:00+26в22690 0.0 1013368